Hourly Data Report for October 01, 2017

All times are specified in Local Standard Time (LST). Add 1 hour to adjust for Daylight Saving Time where and when it is observed.

POWELL RIVER
BRITISH COLUMBIA

49°50'04.400" N
124°29'48.500" W
125.00 m
1046392
71720
VOP

Download Data

Hourly Data (October 2017)
Hourly Data Report for October 1, 2017
Temp Definition
°C
Dew Point Temp Definition
°C
Rel Hum Definition
%
Wind Dir Definition
10's deg

Wind Spd Definition
km/h
Visibility Definition
km
Stn Press Definition
kPa
Hmdx Definition


Wind Chill Definition


Weather Definition


TIME
00:00 5.6 4.9 95 LegendMM LegendMM   100.39     LegendNANA
01:00 7.1 6.6 97 LegendMM LegendMM   100.39     LegendNANA
02:00 7.1 6.6 96 LegendMM LegendMM   100.39     LegendNANA
03:00 6.3 5.7 96 LegendMM LegendMM   100.41     LegendNANA
04:00 7.3 6.8 97 LegendMM LegendMM   100.43     LegendNANA
05:00 10.1 9.4 95 LegendMM LegendMM   100.44     LegendNANA
06:00 10.1 8.8 92 LegendMM LegendMM   100.46     LegendNANA
07:00 10.2 8.6 89 LegendMM LegendMM   100.52     LegendNANA
08:00 10.5 8.4 87 LegendMM LegendMM   100.55     LegendNANA
09:00 11.1 8.8 86 LegendMM LegendMM   100.54     LegendNANA
10:00 12.3 8.9 79 LegendMM LegendMM   100.56     LegendNANA
11:00 13.2 8.1 71 LegendMM LegendMM   100.55     LegendNANA
12:00 13.7 7.9 68 LegendMM LegendMM   100.59     LegendNANA
13:00 14.1 7.3 64 LegendMM LegendMM   100.57     LegendNANA
14:00 14.8 7.9 63 LegendMM LegendMM   100.54     LegendNANA
15:00 15.0 7.7 61 LegendMM LegendMM   100.54     LegendNANA
16:00 15.2 7.6 60 LegendMM LegendMM   100.52     LegendNANA
17:00 15.1 7.9 62 LegendMM LegendMM   100.51     LegendNANA
18:00 14.0 9.0 72 LegendMM LegendMM   100.52     LegendNANA
19:00 13.0 7.8 71 LegendMM LegendMM   100.55     LegendNANA
20:00 8.5 6.6 88 LegendMM LegendMM   100.57     LegendNANA
21:00 9.5 6.3 81 LegendMM LegendMM   100.57     LegendNANA
22:00 6.7 5.5 92 LegendMM LegendMM   100.56     LegendNANA
23:00 7.3 6.4 95 LegendMM LegendMM   100.58     LegendNANA

Notes on Data Quality.

Legend

  • E = Estimated
  • M = Missing
  • NA = Not Available
  • ‡ = Partner data that is not subject to review by the National Climate Archives
Date modified: